This demonstration page uses our WeatherBlox Daily Observations layout. Learn more.

41.55636, -103.73856

Hourly Observations for August 9, 2015

Temp ( °F °C ) Dew Point ( °F °C ) Humidity (%) Winds ( mph kmh ) Pressure ( in mb ) Visibility ( mi km ) Precip ( " mm )
12:53 am 00:53 Clear 68 20 56 13.3 65 65 NNW 6 9 29.84 1011 10 16.0934 0 0
1:53 am 01:53 Clear 65 18.3 55 12.8 70 70 WSW 7 11 29.83 1010 10 16.0934 0 0
2:53 am 02:53 Clear 64 17.8 55 12.8 73 73 WNW 7 11 29.87 1012 10 16.0934 0 0
3:53 am 03:53 Clear 60 15.6 55 12.8 84 84 NNW 7 11 29.88 1012 10 16.0934 0 0
4:53 am 04:53 Partly Cloudy 59 15 55 12.8 87 87 NW 3 6 29.91 1013 10 16.0934 0 0
5:53 am 05:53 Clear 59 15 55 12.8 87 87 NW 7 11 29.92 1013 10 16.0934 0 0
6:53 am 06:53 Sunny 60 15.6 56 13.3 86 86 NW 6 9 29.93 1014 10 16.0934 0 0
7:53 am 07:53 Sunny 67 19.4 59 15 76 76 NW 8 13 29.94 1014 10 16.0934 0 0
9:53 am 09:53 Sunny 76 24.4 52 11.1 43 43 W 14 22 29.94 1014 10 16.0934 0 0
10:53 am 10:53 Sunny 79 26.1 51 10.6 38 38 WNW 15 24 29.93 1014 10 16.0934 0 0
11:53 am 11:53 Sunny 83 28.3 51 10.6 33 33 NW 10 17 29.93 1014 10 16.0934 0 0
12:53 pm 12:53 Sunny 86 30 50 10 29 29 NW 7 11 29.92 1013 10 16.0934 0 0
1:53 pm 13:53 Sunny 87 30.6 48 8.9 26 26 W 12 19 29.91 1013 10 16.0934 0 0
2:53 pm 14:53 Sunny 89 31.7 44 6.7 21 21 NW 20 31 29.9 1012 10 16.0934 0 0
3:53 pm 15:53 Sunny 90 32.2 45 7.2 21 21 NW 12 19 29.9 1012 10 16.0934 0 0
4:53 pm 16:53 Mostly Sunny 89 31.7 49 9.4 25 25 WNW 8 13 29.91 1013 10 16.0934 0 0
5:53 pm 17:53 Mostly Cloudy 84 28.9 52 11.1 33 33 Calm 29.93 1014 10 16.0934 0 0
6:53 pm 18:53 Sunny 80 26.7 58 14.4 47 47 ENE 7 11 29.94 1014 10 16.0934 0 0
7:53 pm 19:53 Sunny 75 23.9 57 13.9 54 54 ENE 7 11 29.96 1015 10 16.0934 0 0
8:53 pm 20:53 Clear 70 21.1 58 14.4 66 66 ENE 7 11 29.99 1016 10 16.0934 0 0
9:53 pm 21:53 Clear 68 20 59 15 73 73 ENE 7 11 30.02 1017 10 16.0934 0 0
10:53 pm 22:53 Clear 68 20 59 15 73 73 NE 8 13 30.04 1017 10 16.0934 0 0
11:53 pm 23:53 Clear 67 19.4 59 15 76 76 SSE 3 6 30.05 1018 10 16.0934 0 0

Powered by AerisWeather